Wind_Speed
13 10 8 4 2 4 3 5 2 3 2 1 4 3 6 4 2 3 8 12 21 21 18 16 16 14 12 11 10 10 10 10 9 8 7 7 8 8 8 8 6 7 8 8 8 8 9 9 9
11 3 3 2 4 3 5 4 4 4 6 7 6 4 6 3 3 9 14 16 22 21 19 18 17 15 12 11 11 10 10 9 8 7 6 7 8 8 8 8 6 7 8 8 9 10 10 10 10
8 1 3 3 3 5 5 4 5 4 7 2 5 5 3 2 7 15 13 25 23 21 19 18 16 15 13 11 9 9 8 7 6 5 5 6 6 7 8 9 9 8 8 9 10 11 11 11 10
2 1 4 4 5 6 4 4 5 8 3 5 5 7 4 2 10 10 30 25 24 21 19 17 15 13 11 10 9 7 6 6 5 5 6 6 7 8 9 9 10 11 10 11 11 12 12 13 13
1 1 3 4 5 5 4 4 7 6 5 2 2 4 3 3 12 29 26 26 26 22 17 15 14 13 11 9 7 6 6 5 5 5 6 7 8 8 10 11 12 12 13 13 13 13 13 14 14
1 1 3 6 6 5 4 4 5 3 3 5 6 6 3 13 29 28 27 26 24 24 18 14 12 11 10 8 6 6 5 4 5 5 8 8 8 8 9 10 11 12 12 13 14 14 14 13 14
4 3 5 7 8 3 4 6 5 6 6 3 7 5 4 11 19 28 27 25 24 22 18 14 12 10 9 7 5 5 5 5 5 6 8 8 8 8 8 10 11 12 12 14 14 14 14 14 14
3 3 4 7 9 6 3 4 4 4 2 5 2 7 6 10 22 28 26 25 23 20 18 15 13 10 8 6 5 4 4 5 6 8 9 8 8 8 9 10 10 11 13 13 12 12 14 15 15
3 3 3 7 9 6 6 5 2 3 6 3 2 2 10 28 28 29 26 23 21 18 16 14 13 11 8 5 4 3 4 5 6 8 9 10 10 10 10 11 12 12 12 12 13 13 14 16 17
4 3 4 2 4 11 8 6 9 5 3 3 4 9 24 30 27 24 21 19 21 19 16 13 11 10 7 4 3 3 4 5 7 8 9 10 11 12 12 12 13 12 12 12 13 14 16 16 16
4 4 1 5 5 3 9 4 2 11 3 7 13 14 16 22 19 21 19 26 24 20 16 13 11 8 6 4 2 2 4 4 7 8 9 11 12 13 13 14 14 14 14 15 15 14 14 14 15
3 6 2 5 6 5 7 10 4 3 2 5 12 21 19 15 15 19 20 20 22 20 16 13 10 8 6 4 3 3 3 4 6 8 9 11 12 14 14 15 15 14 15 16 15 15 15 15 15
3 3 4 4 9 5 2 5 8 3 4 12 14 12 15 12 14 15 26 23 22 19 17 13 11 8 6 4 4 2 2 4 6 7 9 10 12 15 14 15 14 14 15 15 16 15 15 17 17
5 5 6 5 8 3 5 3 4 2 6 12 14 9 9 11 15 15 20 24 21 19 16 14 11 8 6 5 3 2 2 5 5 7 9 10 13 14 14 15 14 14 14 14 14 16 16 17 18
4 2 6 5 2 2 2 4 3 4 7 16 11 8 7 8 15 17 23 25 23 20 16 15 12 9 7 5 3 1 2 4 4 7 8 11 14 14 14 14 13 14 14 13 14 14 17 19 19
1 3 3 4 1 3 1 4 2 7 12 12 9 7 7 7 13 18 22 23 22 19 18 15 12 10 8 5 3 1 1 3 4 7 9 10 12 13 14 14 13 13 12 13 14 16 19 20 22
0 4 4 3 1 1 2 3 3 5 8 9 7 8 7 7 11 18 22 23 22 21 19 17 14 11 9 6 4 2 1 3 5 7 8 10 11 12 14 13 13 13 12 13 15 16 19 22 25
6 4 3 3 1 4 5 3 4 5 9 10 8 7 7 7 8 20 22 23 21 20 18 16 14 12 9 7 5 3 3 3 4 6 7 8 10 11 12 12 12 14 12 13 14 15 17 20 25
2 2 5 2 5 4 1 6 5 5 4 7 7 7 7 8 10 20 24 23 20 19 17 16 15 12 9 7 5 4 3 3 4 6 7 8 9 10 11 11 12 12 13 13 13 15 16 19 24
6 5 3 0 3 4 3 3 2 3 4 6 9 8 10 6 6 12 19 19 21 20 18 16 14 10 9 6 4 3 3 4 5 5 7 8 9 10 11 11 11 11 11 11 10 11 13 12 17
4 8 4 5 3 6 5 4 3 3 2 4 5 5 4 10 9 7 15 20 18 16 16 14 12 10 8 7 5 4 5 5 4 6 10 11 12 11 11 11 10 9 9 10 9 8 10 10 11
5 2 7 9 5 3 3 4 5 5 6 5 7 8 9 8 5 5 13 16 16 14 12 11 10 9 8 8 6 5 5 5 5 11 13 14 13 12 10 10 10 9 8 9 9 7 7 8 9
2 3 5 4 6 4 3 3 6 1 7 7 9 9 9 7 8 9 15 18 13 10 8 8 8 8 7 6 6 6 5 6 8 11 13 13 11 10 9 9 9 9 9 9 8 7 5 6 7
2 4 8 5 4 2 1 4 5 6 8 7 5 8 8 7 6 7 12 12 10 8 7 8 8 7 6 6 6 6 6 7 10 11 11 12 12 11 9 9 9 9 9 10 9 8 7 6 6
6 3 3 3 3 5 2 2 8 4 7 7 15 11 9 7 7 7 9 13 11 10 9 8 8 6 5 5 4 3 5 7 7 8 10 12 12 12 11 10 9 10 10 10 10 11 11 9 9
4 2 5 5 4 3 1 6 7 6 3 5 6 9 7 7 6 7 11 14 13 11 10 9 8 8 5 4 3 3 4 5 6 8 9 10 11 11 11 10 10 10 10 10 11 12 12 11 11
1 2 3 7 3 4 3 7 9 6 5 3 6 9 10 9 8 8 12 15 14 12 10 10 9 7 5 3 2 3 5 6 7 7 8 8 9 10 11 11 11 10 10 11 11 12 12 12 12
1 3 3 3 3 3 4 5 6 4 8 5 7 10 8 7 7 7 12 15 14 13 12 10 8 5 3 1 2 3 4 5 6 7 8 9 11 11 12 12 11 11 11 10 10 11 12 13 13
1 0 4 4 4 4 1 6 6 5 7 9 8 8 9 9 9 8 14 16 15 13 11 9 6 4 2 1 2 2 3 4 5 6 7 9 9 10 11 11 11 12 11 10 11 11 12 13 13
1 3 5 4 4 1 3 6 3 6 5 7 8 8 7 8 9 8 16 18 15 13 11 8 5 4 2 2 2 3 4 4 5 6 6 7 8 8 9 10 10 10 10 10 11 11 11 13 14
Wind_Direction
305 311 317 11 60 72 238 264 258 121 92 314 79 136 137 52 128 187 155 153 159 152 154 149 144 140 134 126 113 104 99 95 86 80 69 58 51 35 29 23 19 3 359 355 352 346 344 344 344
310 318 38 71 109 134 249 246 205 165 133 121 80 57 45 83 84 122 129 157 154 149 149 145 142 138 133 123 112 101 86 78 74 73 63 47 37 31 17 16 12 0 355 344 342 333 328 325 326
322 255 111 134 146 187 210 184 154 115 145 76 105 55 85 67 120 141 151 150 148 144 144 141 137 134 129 117 105 105 107 94 75 54 36 20 10 6 4 3 357 348 340 332 330 331 336 342 328
335 345 40 121 214 255 216 173 135 127 118 67 107 70 56 359 142 158 150 149 144 140 141 137 133 132 127 123 121 107 89 74 60 41 24 11 4 359 357 358 353 347 341 334 327 321 320 319 317
133 31 116 150 219 267 269 179 157 145 112 78 151 130 65 5 160 147 153 150 143 139 139 139 135 132 131 126 119 104 90 71 50 28 11 4 0 359 2 2 358 352 348 347 343 336 330 325 321
73 101 134 179 197 242 269 192 157 102 114 158 90 94 90 133 137 153 155 153 146 142 146 144 139 135 131 124 117 102 82 58 38 19 9 7 5 2 1 355 356 354 353 356 353 351 348 345 340
133 118 200 163 179 215 230 147 167 143 132 142 137 87 112 149 145 156 159 155 153 149 147 144 141 137 128 120 111 90 67 46 32 22 11 11 6 358 348 349 346 345 346 345 347 349 348 342 335
121 112 171 194 181 198 196 133 134 113 103 129 106 151 170 163 154 158 159 158 151 148 147 148 147 140 131 124 101 73 55 44 37 30 19 12 2 357 351 347 347 342 339 341 345 341 337 332 328
116 64 212 196 157 183 155 127 24 38 108 66 34 139 142 149 153 148 147 145 144 148 149 152 151 144 140 132 106 72 51 39 30 21 21 13 7 358 350 345 338 337 336 338 336 334 332 328 324
104 128 231 265 215 182 167 149 150 118 124 70 63 66 127 144 146 137 140 142 152 153 154 158 157 154 153 144 119 72 44 43 22 16 11 9 4 0 356 354 350 350 350 348 342 335 331 331 334
169 189 348 325 283 211 157 115 121 132 227 204 175 152 144 144 149 144 147 158 163 160 161 166 164 164 164 148 129 83 56 33 20 9 5 6 1 3 359 3 3 4 3 354 349 349 352 351 346
192 236 192 292 330 315 170 132 99 166 242 161 152 153 148 153 157 152 147 159 158 163 165 167 172 177 178 166 143 104 60 20 18 9 360 3 5 3 4 6 8 9 8 6 7 4 0 355 351
190 270 294 309 300 274 139 131 147 94 47 114 128 153 154 149 144 156 163 166 163 167 173 177 182 186 180 170 155 119 50 16 14 10 4 6 5 3 3 6 10 11 11 12 5 358 355 352 350
321 256 284 318 312 300 136 123 129 77 120 118 141 150 158 147 147 143 161 168 174 178 182 185 188 190 183 176 164 118 36 12 8 16 9 6 4 2 0 6 10 10 7 6 2 358 356 352 345
307 251 323 292 318 254 107 32 113 130 130 142 143 149 143 145 156 166 175 176 182 186 187 193 192 191 191 186 175 109 10 13 23 20 9 6 2 1 358 3 7 8 4 1 359 2 352 347 345
225 71 135 281 93 218 186 218 113 155 139 144 136 143 153 177 177 178 182 188 188 189 196 195 198 201 202 199 199 216 2 9 7 6 2 5 3 360 359 2 6 5 3 2 3 359 359 356 354
53 185 165 289 162 238 103 171 173 152 137 144 157 164 170 176 187 187 192 191 192 198 198 200 203 207 208 207 220 244 299 326 339 349 357 2 0 357 0 2 4 2 360 1 1 3 0 359 356
188 171 144 229 258 57 83 130 139 158 150 165 172 175 175 184 201 199 196 196 201 204 205 208 208 211 211 217 234 255 289 317 328 341 349 352 351 353 358 2 5 3 4 1 4 3 5 2 356
271 137 117 264 301 98 51 136 167 173 154 165 184 187 185 193 208 201 199 198 201 205 208 210 211 212 217 225 246 264 299 327 325 342 345 344 345 347 351 358 2 5 9 4 1 5 3 5 3
238 154 150 201 353 90 53 62 359 172 213 191 185 196 193 179 182 193 201 201 202 205 207 214 216 219 223 238 249 267 314 314 319 338 348 343 334 335 338 341 350 357 1 4 2 5 5 7 9
209 157 167 153 16 55 83 359 261 245 259 194 221 205 182 188 186 188 190 198 199 207 213 216 219 223 231 230 238 263 298 303 322 333 335 336 331 326 322 324 324 340 347 353 351 357 360 356 2
155 180 145 135 101 179 30 238 262 232 238 216 204 199 209 195 185 177 186 192 201 208 212 216 221 224 220 222 237 262 287 304 313 322 325 329 329 325 320 317 311 310 324 337 345 338 340 343 349
93 114 128 102 90 87 354 61 266 151 237 230 224 218 219 212 191 190 192 199 198 200 202 206 203 201 208 221 242 259 275 291 304 315 319 327 334 336 330 322 316 303 297 306 327 337 331 327 325
21 72 47 60 89 27 282 135 268 203 200 213 218 215 206 189 184 165 180 180 172 170 173 172 173 179 204 227 242 256 279 298 307 317 324 332 335 339 338 326 319 312 302 293 297 305 302 293 299
58 47 27 24 17 209 296 32 244 222 236 213 198 197 195 180 159 143 139 147 153 159 162 165 170 176 199 214 218 252 283 295 306 320 324 328 331 332 336 329 318 311 307 297 288 291 289 284 281
56 250 148 167 172 240 74 238 249 221 272 247 203 179 156 167 166 160 154 151 152 156 158 159 163 162 162 172 206 251 280 295 305 310 313 316 320 324 326 322 317 309 303 301 293 292 295 287 284
74 6 170 102 33 65 224 288 295 218 241 200 177 154 166 169 170 160 153 153 151 150 151 158 156 150 153 172 229 269 291 300 306 310 314 319 321 322 321 317 313 309 305 299 293 290 292 287 285
78 172 57 3 119 240 277 280 237 249 236 202 182 173 161 156 152 151 154 153 154 155 150 148 150 158 172 229 328 330 331 334 337 335 330 327 325 320 316 312 313 312 307 305 296 290 288 284 282
141 114 55 114 129 175 256 260 218 226 220 202 191 173 163 165 167 165 164 165 159 155 152 152 160 161 134 48 13 13 13 4 357 354 353 351 348 343 342 337 332 328 321 313 302 294 286 280 282
184 184 141 117 210 177 152 276 220 251 258 184 185 179 177 172 171 170 167 162 157 156 161 161 151 146 125 101 89 66 38 25 21 20 17 7 5 3 357 352 346 340 334 330 320 313 301 291 288
Height
799 798 797 797 820 824 827 813 793 797 797 793 791 797 804 808 812 829 814 817 820 822 826 828 830 833 834 836 836 836 837 837 838 838 838 838 838 837 837 836 836 835 834 833 832 831 830 829 828
799 798 798 807 829 834 827 803 798 795 796 794 794 800 807 816 810 814 817 819 822 824 827 829 831 833 835 837 837 838 839 839 839 839 839 839 839 838 838 837 836 835 834 833 832 831 830 829 828
800 800 805 815 831 831 820 797 795 795 793 793 801 802 806 814 813 814 816 820 824 826 829 831 833 835 836 838 839 839 840 840 840 841 840 840 839 838 838 837 836 835 835 833 832 831 830 828 827
800 801 807 822 826 811 800 793 791 797 797 795 798 811 809 810 813 815 819 822 825 828 832 834 835 836 838 839 840 840 841 841 841 841 841 840 839 839 838 837 837 836 834 833 832 831 829 828 826
801 804 819 824 817 807 794 789 791 793 797 799 797 815 816 813 813 817 821 824 825 830 833 835 837 838 839 840 841 842 842 842 842 841 841 840 840 839 838 837 836 835 834 833 831 830 828 826 825
806 807 820 826 815 801 792 787 788 792 798 801 804 810 817 815 814 820 823 826 828 829 834 837 839 840 841 842 843 843 843 842 842 842 841 840 840 839 838 837 836 835 834 832 831 829 827 826 824
805 812 811 812 810 801 791 788 792 796 800 801 799 815 816 817 818 820 824 828 829 831 834 837 840 841 842 844 844 844 843 843 843 842 842 841 840 839 838 837 836 834 833 831 830 828 826 824 822
803 808 808 803 804 802 786 788 789 792 801 796 797 811 816 814 817 820 825 828 830 833 835 838 840 841 843 844 845 844 844 844 843 843 842 841 840 839 838 837 835 834 832 830 829 827 825 823 821
798 814 814 799 800 791 786 790 790 792 798 801 800 800 800 810 816 820 826 829 832 835 836 838 840 841 843 844 844 845 845 844 844 843 842 841 840 839 838 836 835 833 831 829 827 826 824 821 819
804 817 806 790 786 779 784 785 790 795 803 804 805 805 805 810 816 819 824 829 832 835 837 839 840 841 843 844 844 844 845 845 844 843 842 841 840 839 838 836 834 832 830 828 826 825 822 820 817
803 809 797 788 782 775 780 787 787 795 806 799 799 806 808 811 816 819 824 827 830 834 837 840 840 842 843 843 844 845 845 845 844 843 843 841 840 839 838 835 834 831 829 828 825 823 821 818 816
801 796 796 792 786 784 785 784 792 791 791 788 795 797 804 811 815 817 823 828 830 834 837 839 841 842 843 843 844 845 845 845 844 843 843 841 840 839 837 835 833 831 829 827 825 823 821 819 816
799 795 792 793 789 786 782 785 789 792 793 792 799 805 807 811 815 819 821 827 830 834 837 839 841 842 843 843 844 844 844 844 844 843 842 841 840 838 837 835 833 831 829 827 825 823 821 818 816
807 796 794 792 792 785 788 789 785 797 797 799 802 808 811 811 814 820 823 826 830 833 836 839 841 842 843 843 844 844 844 844 843 842 842 841 839 838 837 835 833 831 829 827 825 823 820 818 815
806 800 796 793 789 788 785 794 796 797 799 801 806 810 813 814 816 818 822 825 828 832 836 838 840 841 842 843 843 843 843 843 843 842 842 841 839 838 837 834 832 830 829 827 825 823 820 817 814
801 801 809 794 790 787 792 808 798 799 799 805 809 812 814 815 816 818 821 824 828 832 834 837 838 840 841 842 843 843 843 843 843 842 842 840 840 839 837 834 832 830 829 827 825 823 820 817 812
805 817 810 799 790 790 793 805 798 800 802 807 810 812 814 815 816 818 820 824 827 830 833 835 837 839 841 842 842 842 842 843 843 842 841 840 840 839 836 834 832 830 828 827 825 823 820 816 812
815 810 804 805 793 794 799 803 801 801 802 806 810 812 812 814 815 817 820 824 827 830 833 835 837 839 840 841 842 842 842 841 842 842 841 840 840 838 836 834 832 830 828 826 825 823 821 818 814
805 805 801 802 796 795 804 805 804 803 805 809 811 812 812 813 813 816 819 822 826 829 832 834 836 839 840 841 841 841 841 841 841 841 840 839 839 838 836 834 832 830 828 827 826 824 822 818 816
811 806 803 802 797 796 806 809 807 805 805 806 808 811 810 812 813 816 819 822 824 827 830 833 836 838 840 840 841 841 840 840 840 839 839 838 837 836 834 833 831 830 828 827 826 825 823 821 820
804 806 807 803 801 805 808 817 811 805 804 805 806 806 808 809 812 815 818 820 823 826 829 832 835 837 838 839 839 839 839 839 838 838 838 837 835 834 832 831 830 828 827 826 826 825 824 822 821
800 797 799 805 816 831 818 841 821 814 809 806 806 808 807 807 810 813 816 819 822 826 829 831 833 835 837 837 838 838 838 837 837 836 836 834 833 831 830 828 827 827 826 826 825 824 824 823 821
803 800 804 812 836 826 824 847 818 814 812 809 807 806 805 806 809 811 813 817 822 825 827 829 832 834 835 836 836 836 836 835 835 835 833 832 831 829 828 826 825 825 824 824 823 822 822 822 822
802 806 816 831 843 855 834 843 827 814 803 803 802 804 805 807 809 810 814 818 821 824 826 828 830 832 834 835 835 835 834 834 834 833 832 830 828 827 826 825 824 823 822 822 821 820 820 819 819
806 813 872 854 867 848 883 861 809 793 796 792 793 799 803 807 809 811 813 817 820 823 826 827 829 831 832 832 833 833 833 833 832 831 829 828 826 825 823 822 821 821 821 819 819 819 818 816 816
815 819 842 846 864 850 845 831 804 791 789 790 790 795 803 808 810 811 813 816 819 822 825 826 827 829 830 831 831 831 831 830 829 828 827 826 824 822 821 820 818 818 818 817 816 816 816 815 813
814 819 821 845 869 861 847 818 793 791 789 791 794 796 802 806 809 810 813 815 819 821 823 824 826 828 829 829 829 829 828 828 827 826 825 823 822 820 819 818 816 815 814 813 813 812 812 812 811
814 819 824 850 844 837 841 825 810 795 792 793 797 796 800 804 808 811 812 815 817 819 821 823 825 826 827 827 827 827 826 826 825 824 823 822 820 819 817 815 814 813 812 810 809 808 809 809 809
823 826 829 832 836 844 849 822 799 798 791 792 795 795 798 803 806 808 810 812 815 817 820 822 823 824 825 826 826 825 825 824 823 822 821 820 818 817 815 813 812 811 809 808 807 805 805 805 805
812 807 818 838 819 867 867 820 782 786 786 789 793 794 797 799 802 805 807 810 813 816 818 820 822 823 823 824 824 824 823 823 822 821 819 818 817 815 813 812 810 809 808 805 805 804 803 803 801